{"data":{"norad_id":60152,"intl_designator":"2024-120T","name":"STARLINK-32147","alt_names":[],"object_type":"PAYLOAD","status":"ACTIVE","operator":null,"country":"US","launch_date":"2024-06-27","launch_site_code":"AFETR","launch_vehicle":null,"mission":null,"orbit_class":"UNKNOWN","rcs_meters":null,"size_class":null,"mass_kg":null,"dimensions":null,"purposes":["comms"],"wikipedia_slug":null,"has_3d_model":false,"image_url":null,"decayed_at":null,"tle_current":{"epoch":"2026-05-25T04:00:03.998880Z","epoch_age_seconds":57125,"freshness":"FRESH","line1":"1 60152U 24120T   26145.16671295 -.00022650  00000+0 -67922-3 0  9993","line2":"2 60152  53.1596 324.9027 0001183  85.9281 224.8530 15.33558039  5908","mean_motion":15.33558039,"eccentricity":0.0001183,"inclination_deg":53.1596,"raan_deg":324.9027,"arg_perigee_deg":85.9281,"mean_anomaly_deg":224.853,"bstar":-0.00067922,"rev_number":590,"period_min":93.899282803734,"perigee_km":464.39730302293,"apogee_km":466.01643818271,"semimajor_km":6843.3438706028,"source":"CELESTRAK","updated_at":"2026-05-25T13:38:19.191752Z"}}}